Time,TemperatureF,DewpointF,PressureIn,WindDirection,WindDirectionDegrees,WindSpeedMPH,WindSpeedGustMPH,Humidity,HourlyPrecipIn,Conditions,Clouds,dailyrainin,SoftwareType,DateUTC
2013-05-12 00:01:00,46.0,39.9,29.81,WNW,292,0.0,0.0,79,0.00,,---,0.22,VWS V14.01,2013-05-12 04:01:00,
2013-05-12 00:06:00,45.6,39.5,29.81,West,270,0.0,0.0,79,0.00,,---,0.00,VWS V14.01,2013-05-12 04:06:00,
2013-05-12 00:11:00,45.6,39.5,29.81,WNW,292,0.0,0.0,79,0.00,,---,0.00,VWS V14.01,2013-05-12 04:11:00,
2013-05-12 00:16:00,45.6,39.5,29.81,WNW,292,0.0,0.0,79,0.00,,---,0.00,VWS V14.01,2013-05-12 04:16:00,
2013-05-12 00:21:00,45.5,39.4,29.81,WNW,292,0.0,0.0,79,0.00,,---,0.00,VWS V14.01,2013-05-12 04:21:00,
2013-05-12 00:26:00,45.5,39.4,29.81,SSE,158,0.0,0.0,79,0.00,,---,0.00,VWS V14.01,2013-05-12 04:26:00,
2013-05-12 00:31:00,45.3,39.2,29.81,SSE,158,0.0,0.0,79,0.00,,---,0.00,VWS V14.01,2013-05-12 04:31:00,
2013-05-12 00:36:00,45.3,39.2,29.81,WNW,292,0.0,0.0,79,0.00,,---,0.00,VWS V14.01,2013-05-12 04:36:00,
2013-05-12 00:41:00,45.3,39.2,29.81,SE,135,0.0,0.0,79,0.00,,---,0.00,VWS V14.01,2013-05-12 04:41:00,
2013-05-12 00:46:00,45.3,39.2,29.81,NW,315,0.0,0.0,79,0.00,,---,0.00,VWS V14.01,2013-05-12 04:46:00,
2013-05-12 00:51:00,45.3,39.2,29.81,SE,135,0.0,0.0,79,0.00,,---,0.00,VWS V14.01,2013-05-12 04:51:00,
2013-05-12 00:56:00,45.3,39.2,29.81,NE,45,0.0,0.0,79,0.00,,---,0.00,VWS V14.01,2013-05-12 04:56:00,
2013-05-12 01:01:00,45.3,39.2,29.81,NE,45,0.0,0.0,79,0.00,,---,0.00,VWS V14.01,2013-05-12 05:01:00,
2013-05-12 01:06:00,45.3,39.2,29.81,NE,45,0.0,0.0,79,0.00,,---,0.00,VWS V14.01,2013-05-12 05:06:00,
2013-05-12 01:11:00,45.3,39.2,29.81,ENE,68,0.0,0.0,79,0.00,,---,0.00,VWS V14.01,2013-05-12 05:11:00,
2013-05-12 01:16:00,45.3,39.5,29.80,NNE,22,0.0,0.0,80,0.00,,---,0.00,VWS V14.01,2013-05-12 05:16:00,
2013-05-12 01:21:00,45.3,39.5,29.80,NNE,22,0.0,0.0,80,0.00,,---,0.00,VWS V14.01,2013-05-12 05:21:00,
2013-05-12 01:26:00,45.3,39.5,29.80,NE,45,0.0,0.0,80,0.00,,---,0.00,VWS V14.01,2013-05-12 05:26:00,
2013-05-12 01:31:00,45.3,39.5,29.81,NE,45,0.0,0.0,80,0.00,,---,0.00,VWS V14.01,2013-05-12 05:31:00,
2013-05-12 01:36:00,45.3,39.5,29.80,NE,45,0.0,0.0,80,0.00,,---,0.00,VWS V14.01,2013-05-12 05:36:00,
2013-05-12 01:41:00,45.3,39.5,29.80,NE,45,0.0,0.0,80,0.00,,---,0.00,VWS V14.01,2013-05-12 05:41:00,
2013-05-12 01:46:00,45.1,39.3,29.80,SE,135,0.0,0.0,80,0.00,,---,0.19,VWS V14.01,2013-05-12 05:46:00,
2013-05-12 01:51:00,45.3,39.5,29.80,SE,135,0.0,0.0,80,0.00,,---,0.00,VWS V14.01,2013-05-12 05:51:00,
2013-05-12 01:56:00,45.1,39.3,29.80,SE,135,0.0,0.0,80,0.00,,---,0.00,VWS V14.01,2013-05-12 05:56:00,
2013-05-12 02:01:00,45.1,39.3,29.79,SE,135,0.0,0.0,80,0.00,,---,0.00,VWS V14.01,2013-05-12 06:01:00,
2013-05-12 02:06:00,45.1,39.3,29.79,SE,135,0.0,0.0,80,0.00,,---,0.00,VWS V14.01,2013-05-12 06:06:00,
2013-05-12 02:11:00,44.9,39.1,29.79,SE,135,0.0,0.0,80,0.00,,---,0.00,VWS V14.01,2013-05-12 06:11:00,
2013-05-12 02:16:00,44.9,38.8,29.79,SE,135,0.0,0.0,79,0.00,,---,0.00,VWS V14.01,2013-05-12 06:16:00,
2013-05-12 02:21:00,44.9,38.8,29.80,SE,135,0.0,0.0,79,0.00,,---,0.00,VWS V14.01,2013-05-12 06:21:00,
2013-05-12 02:26:00,44.7,38.9,29.79,SE,135,0.0,0.0,80,0.00,,---,0.00,VWS V14.01,2013-05-12 06:26:00,
2013-05-12 02:31:00,44.6,38.8,29.79,SE,135,0.0,0.0,80,0.00,,---,0.00,VWS V14.01,2013-05-12 06:31:00,
2013-05-12 02:36:00,44.4,38.6,29.80,WNW,292,0.0,0.0,80,0.00,,---,0.00,VWS V14.01,2013-05-12 06:36:00,
2013-05-12 02:41:00,44.4,38.6,29.79,NW,315,0.0,0.0,80,0.00,,---,0.00,VWS V14.01,2013-05-12 06:41:00,
2013-05-12 02:46:00,44.4,38.6,29.79,SSE,158,0.0,0.0,80,0.00,,---,0.00,VWS V14.01,2013-05-12 06:46:00,
2013-05-12 02:51:00,44.4,38.9,29.79,NW,315,0.0,0.0,81,0.00,,---,0.00,VWS V14.01,2013-05-12 06:51:00,
2013-05-12 02:56:00,44.4,38.9,29.79,NW,315,0.0,0.0,81,0.00,,---,0.19,VWS V14.01,2013-05-12 06:56:00,
2013-05-12 03:01:00,44.4,38.9,29.79,NW,315,0.0,0.0,81,0.00,,---,0.00,VWS V14.01,2013-05-12 07:01:00,
2013-05-12 03:06:00,44.4,39.3,29.79,NE,45,0.0,0.0,82,0.00,,---,0.00,VWS V14.01,2013-05-12 07:06:00,
2013-05-12 03:11:00,44.4,39.3,29.79,NE,45,0.0,0.0,82,0.00,,---,0.00,VWS V14.01,2013-05-12 07:11:00,
2013-05-12 03:16:00,44.6,39.5,29.79,NW,315,0.0,0.0,82,0.00,,---,0.00,VWS V14.01,2013-05-12 07:16:00,
2013-05-12 03:21:00,44.6,39.5,29.78,NW,315,0.0,0.0,82,0.00,,---,0.00,VWS V14.01,2013-05-12 07:21:00,
2013-05-12 03:26:00,44.7,39.5,29.79,NNW,338,0.0,0.0,82,0.00,,---,0.00,VWS V14.01,2013-05-12 07:26:00,
2013-05-12 03:31:00,44.7,39.5,29.79,NW,315,0.0,0.0,82,0.00,,---,0.00,VWS V14.01,2013-05-12 07:31:00,
2013-05-12 03:36:00,44.7,39.5,29.79,SSE,158,0.0,0.0,82,0.00,,---,0.00,VWS V14.01,2013-05-12 07:36:00,
2013-05-12 03:41:00,44.9,39.8,29.79,NW,315,0.0,0.0,82,0.00,,---,0.00,VWS V14.01,2013-05-12 07:41:00,
2013-05-12 03:46:00,44.9,39.8,29.79,WNW,292,0.0,0.0,82,0.00,,---,0.00,VWS V14.01,2013-05-12 07:46:00,
2013-05-12 03:51:00,44.9,39.8,29.78,NNW,338,0.0,0.0,82,0.00,,---,0.00,VWS V14.01,2013-05-12 07:51:00,
2013-05-12 03:56:00,44.9,39.8,29.78,North,0,0.0,0.0,82,0.00,,---,0.00,VWS V14.01,2013-05-12 07:56:00,
2013-05-12 04:01:00,44.9,40.1,29.78,NNW,338,0.0,0.0,83,0.00,,---,0.00,VWS V14.01,2013-05-12 08:01:00,
2013-05-12 04:06:00,44.9,40.1,29.78,NNW,338,0.0,0.0,83,0.00,,---,0.00,VWS V14.01,2013-05-12 08:06:00,
2013-05-12 04:11:00,45.1,40.2,29.78,ENE,68,0.0,0.0,83,0.00,,---,0.00,VWS V14.01,2013-05-12 08:11:00,
2013-05-12 04:16:00,44.9,39.8,29.78,NE,45,0.0,0.0,82,0.00,,---,0.00,VWS V14.01,2013-05-12 08:16:00,
2013-05-12 04:21:00,45.1,39.9,29.77,NNE,22,0.0,0.0,82,0.00,,---,0.00,VWS V14.01,2013-05-12 08:21:00,
2013-05-12 04:26:00,45.1,39.9,29.77,North,0,0.0,0.0,82,0.00,,---,0.00,VWS V14.01,2013-05-12 08:26:00,
2013-05-12 04:31:00,45.1,39.9,29.76,North,0,0.0,0.0,82,0.00,,---,0.00,VWS V14.01,2013-05-12 08:31:00,
2013-05-12 04:36:00,45.1,39.9,29.76,North,0,0.0,0.0,82,0.00,,---,0.00,VWS V14.01,2013-05-12 08:36:00,
2013-05-12 04:41:00,45.1,39.9,29.76,NNW,338,0.0,0.0,82,0.00,,---,0.00,VWS V14.01,2013-05-12 08:41:00,
2013-05-12 04:46:00,45.1,39.9,29.77,East,90,0.0,0.0,82,0.00,,---,0.00,VWS V14.01,2013-05-12 08:46:00,
2013-05-12 04:51:00,45.1,39.9,29.77,NW,315,0.0,0.0,82,0.00,,---,0.00,VWS V14.01,2013-05-12 08:51:00,
2013-05-12 04:56:00,45.1,39.9,29.77,NNW,338,0.0,0.0,82,0.00,,---,0.00,VWS V14.01,2013-05-12 08:56:00,
2013-05-12 05:01:00,45.1,39.9,29.77,NNW,338,0.0,0.0,82,0.00,,---,0.00,VWS V14.01,2013-05-12 09:01:00,
2013-05-12 05:06:00,45.1,39.9,29.78,SE,135,0.0,0.0,82,0.00,,---,0.00,VWS V14.01,2013-05-12 09:06:00,
2013-05-12 05:11:00,45.1,39.9,29.78,WNW,292,0.0,0.0,82,0.00,,---,0.00,VWS V14.01,2013-05-12 09:11:00,
2013-05-12 05:16:00,45.1,39.9,29.78,SSE,158,0.0,0.0,82,0.00,,---,0.00,VWS V14.01,2013-05-12 09:16:00,
2013-05-12 05:21:00,45.1,39.9,29.77,SSE,158,0.0,0.0,82,0.00,,---,0.00,VWS V14.01,2013-05-12 09:21:00,
2013-05-12 05:26:00,45.1,39.9,29.77,West,270,0.0,0.0,82,0.00,,---,0.00,VWS V14.01,2013-05-12 09:26:00,
2013-05-12 05:31:00,44.9,39.8,29.76,NNW,338,0.0,0.0,82,0.00,,---,0.00,VWS V14.01,2013-05-12 09:31:00,
2013-05-12 05:36:00,44.9,39.8,29.76,ENE,68,0.0,0.0,82,0.00,,---,0.00,VWS V14.01,2013-05-12 09:36:00,
2013-05-12 05:41:00,44.9,39.8,29.76,NE,45,0.0,0.0,82,0.00,,---,0.00,VWS V14.01,2013-05-12 09:41:00,
2013-05-12 05:46:00,44.9,39.8,29.76,NE,45,0.0,0.0,82,0.00,,---,0.00,VWS V14.01,2013-05-12 09:46:00,
2013-05-12 05:51:00,44.7,39.5,29.76,SSE,158,0.0,0.0,82,0.00,,---,0.00,VWS V14.01,2013-05-12 09:51:00,
2013-05-12 05:56:00,44.7,39.5,29.76,SE,135,0.0,0.0,82,0.00,,---,0.00,VWS V14.01,2013-05-12 09:56:00,
2013-05-12 06:01:00,44.6,39.5,29.76,SE,135,0.0,0.0,82,0.00,,---,0.00,VWS V14.01,2013-05-12 10:01:00,
2013-05-12 06:06:00,44.6,39.5,29.76,SE,135,0.0,0.0,82,0.00,,---,0.00,VWS V14.01,2013-05-12 10:06:00,
2013-05-12 06:11:00,44.4,39.3,29.75,SE,135,0.0,0.0,82,0.00,,---,0.00,VWS V14.01,2013-05-12 10:11:00,
2013-05-12 06:16:00,44.4,39.3,29.75,SSW,202,0.0,0.0,82,0.00,,---,0.00,VWS V14.01,2013-05-12 10:16:00,
2013-05-12 06:21:00,44.4,39.3,29.75,NE,45,0.0,0.0,82,0.00,,---,0.00,VWS V14.01,2013-05-12 10:21:00,
2013-05-12 06:26:00,44.4,39.3,29.75,NE,45,0.0,0.0,82,0.00,,---,0.00,VWS V14.01,2013-05-12 10:26:00,
2013-05-12 06:31:00,44.4,39.3,29.74,North,0,0.0,0.0,82,0.00,,---,0.00,VWS V14.01,2013-05-12 10:31:00,
2013-05-12 06:36:00,44.2,39.1,29.75,North,0,0.0,0.0,82,0.00,,---,0.00,VWS V14.01,2013-05-12 10:36:00,
2013-05-12 06:41:00,44.2,39.1,29.75,NE,45,0.0,0.0,82,0.00,,---,0.00,VWS V14.01,2013-05-12 10:41:00,
2013-05-12 06:46:00,44.2,39.1,29.74,East,90,0.0,0.0,82,0.00,,---,0.00,VWS V14.01,2013-05-12 10:46:00,
2013-05-12 06:51:00,44.2,39.1,29.74,WNW,292,0.0,0.0,82,0.00,,---,0.00,VWS V14.01,2013-05-12 10:51:00,
2013-05-12 06:56:00,44.2,39.1,29.74,WNW,292,0.0,0.0,82,0.00,,---,0.00,VWS V14.01,2013-05-12 10:56:00,
2013-05-12 07:01:00,44.2,39.1,29.74,SE,135,0.0,0.0,82,0.00,,---,0.00,VWS V14.01,2013-05-12 11:01:00,
2013-05-12 07:06:00,44.4,39.3,29.74,SE,135,0.0,0.0,82,0.00,,---,0.00,VWS V14.01,2013-05-12 11:06:00,
2013-05-12 07:10:00,44.4,39.3,29.74,SSW,202,0.0,0.0,82,0.00,,---,0.00,VWS V14.01,2013-05-12 11:10:00,
2013-05-12 07:15:00,44.4,39.3,29.74,SE,135,0.0,0.0,82,0.00,,---,0.19,VWS V14.01,2013-05-12 11:15:00,
2013-05-12 07:20:00,44.6,39.5,29.74,SE,135,0.0,0.0,82,0.00,,---,0.00,VWS V14.01,2013-05-12 11:20:00,
2013-05-12 07:25:00,44.6,39.5,29.74,NNE,22,0.0,0.0,82,0.00,,---,0.00,VWS V14.01,2013-05-12 11:25:00,
2013-05-12 07:30:00,44.7,39.5,29.75,NNE,22,0.0,0.0,82,0.00,,---,0.00,VWS V14.01,2013-05-12 11:30:00,
2013-05-12 07:35:00,44.7,39.5,29.75,SE,135,0.0,0.0,82,0.00,,---,0.00,VWS V14.01,2013-05-12 11:35:00,
2013-05-12 07:40:00,44.9,39.8,29.75,North,0,2.0,2.0,82,0.00,,---,0.00,VWS V14.01,2013-05-12 11:40:00,
2013-05-12 07:45:00,44.9,39.8,29.76,ESE,112,5.1,5.1,82,0.00,,---,0.00,VWS V14.01,2013-05-12 11:45:00,
2013-05-12 07:50:00,44.9,39.8,29.76,NW,315,3.8,3.8,82,0.00,,---,0.00,VWS V14.01,2013-05-12 11:50:00,
2013-05-12 07:55:00,44.9,39.8,29.77,WNW,292,0.0,0.0,82,0.00,,---,0.00,VWS V14.01,2013-05-12 11:55:00,
2013-05-12 08:00:00,44.9,39.8,29.77,SSE,158,0.0,0.0,82,0.00,,---,0.00,VWS V14.01,2013-05-12 12:00:00,
2013-05-12 08:05:00,44.7,39.2,29.78,NNW,338,6.2,6.2,81,0.00,,---,0.00,VWS V14.01,2013-05-12 12:05:00,
2013-05-12 08:10:00,44.4,38.9,29.77,NW,315,0.0,0.0,81,0.00,,---,0.00,VWS V14.01,2013-05-12 12:10:00,
2013-05-12 08:15:00,44.2,38.8,29.77,WNW,292,3.3,3.3,81,0.00,,---,0.00,VWS V14.01,2013-05-12 12:15:00,
2013-05-12 08:20:00,44.0,38.2,29.78,NNW,338,0.0,0.0,80,0.00,,---,0.00,VWS V14.01,2013-05-12 12:20:00,
2013-05-12 08:25:00,43.8,38.0,29.77,NW,315,9.1,9.1,80,0.00,,---,0.00,VWS V14.01,2013-05-12 12:25:00,
2013-05-12 08:30:00,43.7,37.6,29.77,WNW,292,5.8,5.8,79,0.00,,---,0.00,VWS V14.01,2013-05-12 12:30:00,
2013-05-12 08:35:00,43.5,37.1,29.78,West,270,0.0,0.0,78,0.00,,---,0.00,VWS V14.01,2013-05-12 12:35:00,
2013-05-12 08:40:00,43.3,36.9,29.77,NW,315,0.0,0.0,78,0.00,,---,0.00,VWS V14.01,2013-05-12 12:40:00,
2013-05-12 08:45:00,43.3,36.9,29.77,NW,315,5.8,5.8,78,0.00,,---,0.00,VWS V14.01,2013-05-12 12:45:00,
2013-05-12 08:50:00,43.3,36.9,29.78,West,270,0.0,0.0,78,0.00,,---,0.00,VWS V14.01,2013-05-12 12:50:00,
2013-05-12 08:55:00,43.3,36.9,29.78,NW,315,3.5,3.5,78,0.00,,---,0.00,VWS V14.01,2013-05-12 12:55:00,
2013-05-12 09:00:00,43.1,36.7,29.78,NNW,338,0.0,0.0,78,0.00,,---,0.00,VWS V14.01,2013-05-12 13:00:00,
2013-05-12 09:05:00,43.3,36.9,29.78,NW,315,0.0,0.0,78,0.00,,---,0.00,VWS V14.01,2013-05-12 13:05:00,
2013-05-12 09:10:00,43.3,36.6,29.78,NW,315,8.7,8.7,77,0.00,,---,0.00,VWS V14.01,2013-05-12 13:10:00,
2013-05-12 09:15:00,43.1,36.4,29.78,North,0,0.0,0.0,77,0.00,,---,0.00,VWS V14.01,2013-05-12 13:15:00,
2013-05-12 09:20:00,43.1,36.1,29.78,NW,315,3.3,3.3,76,0.00,,---,0.00,VWS V14.01,2013-05-12 13:20:00,
2013-05-12 09:25:00,42.9,35.9,29.78,North,0,0.0,0.0,76,0.00,,---,0.00,VWS V14.01,2013-05-12 13:25:00,
2013-05-12 09:30:00,42.8,35.4,29.78,North,0,0.0,0.0,75,0.00,,---,0.00,VWS V14.01,2013-05-12 13:30:00,
2013-05-12 09:35:00,42.6,34.9,29.78,NNW,338,6.7,6.7,74,0.00,,---,0.00,VWS V14.01,2013-05-12 13:35:00,
2013-05-12 09:40:00,42.6,34.2,29.78,NNW,338,0.0,0.0,72,0.00,,---,0.00,VWS V14.01,2013-05-12 13:40:00,
2013-05-12 09:45:00,42.4,34.0,29.78,NNW,338,0.0,0.0,72,0.00,,---,0.00,VWS V14.01,2013-05-12 13:45:00,
2013-05-12 09:50:00,42.4,34.0,29.78,WNW,292,0.0,0.0,72,0.00,,---,0.00,VWS V14.01,2013-05-12 13:50:00,
2013-05-12 09:55:00,42.0,33.6,29.78,ESE,112,0.0,0.0,72,0.00,,---,0.00,VWS V14.01,2013-05-12 13:55:00,
2013-05-12 10:00:00,42.0,33.6,29.78,NNW,338,4.0,4.0,72,0.00,,---,0.00,VWS V14.01,2013-05-12 14:00:00,
2013-05-12 10:05:00,42.0,33.6,29.79,SE,135,0.0,0.0,72,0.00,,---,0.00,VWS V14.01,2013-05-12 14:05:00,
2013-05-12 10:10:00,42.0,33.3,29.79,SE,135,0.0,0.0,71,0.00,,---,0.00,VWS V14.01,2013-05-12 14:10:00,
2013-05-12 10:15:00,42.0,33.3,29.79,NNW,338,0.0,0.0,71,0.00,,---,0.00,VWS V14.01,2013-05-12 14:15:00,
2013-05-12 10:20:00,42.0,32.9,29.79,SW,225,0.0,0.0,70,0.00,,---,0.00,VWS V14.01,2013-05-12 14:20:00,
2013-05-12 10:25:00,42.0,32.9,29.79,SE,135,0.0,0.0,70,0.00,,---,0.00,VWS V14.01,2013-05-12 14:25:00,
2013-05-12 10:30:00,42.0,32.9,29.79,ESE,112,0.0,0.0,70,0.00,,---,0.00,VWS V14.01,2013-05-12 14:30:00,
2013-05-12 10:35:00,42.0,32.9,29.79,SW,225,0.0,0.0,70,0.00,,---,0.00,VWS V14.01,2013-05-12 14:35:00,
2013-05-12 10:40:00,42.0,32.9,29.79,NNW,338,0.0,0.0,70,0.00,,---,0.00,VWS V14.01,2013-05-12 14:40:00,
2013-05-12 10:45:00,42.0,32.9,29.79,NW,315,0.0,0.0,70,0.00,,---,0.00,VWS V14.01,2013-05-12 14:45:00,
2013-05-12 10:50:00,41.9,32.5,29.79,NW,315,0.0,0.0,69,0.00,,---,0.00,VWS V14.01,2013-05-12 14:50:00,
2013-05-12 10:55:00,41.7,32.3,29.79,NNW,338,0.0,0.0,69,0.00,,---,0.00,VWS V14.01,2013-05-12 14:55:00,
2013-05-12 11:00:00,41.7,32.3,29.79,WSW,248,0.0,0.0,69,0.00,,---,0.00,VWS V14.01,2013-05-12 15:00:00,
2013-05-12 11:05:00,41.7,32.3,29.79,NNW,338,0.0,0.0,69,0.00,,---,0.00,VWS V14.01,2013-05-12 15:05:00,
2013-05-12 11:10:00,41.9,32.5,29.79,NNW,338,0.0,0.0,69,0.00,,---,0.00,VWS V14.01,2013-05-12 15:10:00,
2013-05-12 11:15:00,42.0,32.6,29.79,NW,315,0.0,0.0,69,0.00,,---,0.00,VWS V14.01,2013-05-12 15:15:00,
2013-05-12 11:20:00,42.4,33.0,29.79,WSW,248,0.0,0.0,69,0.00,,---,0.00,VWS V14.01,2013-05-12 15:20:00,
2013-05-12 11:25:00,42.6,33.2,29.79,NW,315,0.0,0.0,69,0.00,,---,0.00,VWS V14.01,2013-05-12 15:25:00,
2013-05-12 11:30:00,42.8,33.3,29.79,NW,315,0.0,0.0,69,0.00,,---,0.00,VWS V14.01,2013-05-12 15:30:00,
2013-05-12 11:35:00,43.1,33.3,29.79,NW,315,0.0,0.0,68,0.00,,---,0.00,VWS V14.01,2013-05-12 15:35:00,
2013-05-12 11:40:00,43.5,33.7,29.79,NW,315,0.0,0.0,68,0.00,,---,0.00,VWS V14.01,2013-05-12 15:40:00,
2013-05-12 11:45:00,43.8,33.9,29.79,NW,315,0.0,0.0,68,0.00,,---,0.00,VWS V14.01,2013-05-12 15:45:00,
2013-05-12 11:50:00,44.4,34.1,29.79,NW,315,0.0,0.0,67,0.00,,---,0.00,VWS V14.01,2013-05-12 15:50:00,
2013-05-12 11:55:00,44.7,34.0,29.79,NNW,338,0.0,0.0,66,0.00,,---,0.00,VWS V14.01,2013-05-12 15:55:00,
2013-05-12 12:00:00,44.9,33.9,29.79,NNW,338,0.0,0.0,65,0.00,,---,0.00,VWS V14.01,2013-05-12 16:00:00,
2013-05-12 12:05:00,44.9,33.1,29.79,WNW,292,0.0,0.0,63,0.00,,---,0.00,VWS V14.01,2013-05-12 16:05:00,
2013-05-12 12:10:00,45.1,33.3,29.79,WSW,248,0.0,0.0,63,0.00,,---,0.00,VWS V14.01,2013-05-12 16:10:00,
2013-05-12 12:15:00,45.5,33.7,29.79,NW,315,0.0,0.0,63,0.00,,---,0.00,VWS V14.01,2013-05-12 16:15:00,
2013-05-12 12:20:00,45.8,33.1,29.79,NNE,22,0.0,0.0,61,0.00,,---,0.00,VWS V14.01,2013-05-12 16:20:00,
2013-05-12 12:25:00,46.0,33.3,29.79,WNW,292,0.0,0.0,61,0.00,,---,0.00,VWS V14.01,2013-05-12 16:25:00,
2013-05-12 12:30:00,46.2,33.5,29.78,NW,315,0.0,0.0,61,0.00,,---,0.00,VWS V14.01,2013-05-12 16:30:00,
2013-05-12 12:35:00,46.9,33.8,29.78,WNW,292,0.0,0.0,60,0.00,,---,0.00,VWS V14.01,2013-05-12 16:35:00,
2013-05-12 12:40:00,47.1,33.9,29.78,NNW,338,0.0,0.0,60,0.00,,---,0.00,VWS V14.01,2013-05-12 16:40:00,
2013-05-12 12:45:00,47.1,33.9,29.79,NW,315,3.5,3.5,60,0.00,,---,0.00,VWS V14.01,2013-05-12 16:45:00,
2013-05-12 12:50:00,47.3,34.1,29.79,North,0,0.0,0.0,60,0.00,,---,0.00,VWS V14.01,2013-05-12 16:50:00,
2013-05-12 12:55:00,47.8,34.2,29.79,NNW,338,4.0,4.0,59,0.00,,---,0.00,VWS V14.01,2013-05-12 16:55:00,
2013-05-12 13:01:00,48.0,34.4,29.78,NW,315,0.0,0.0,59,0.00,,---,0.00,VWS V14.01,2013-05-12 17:01:00,
2013-05-12 13:06:00,48.3,34.7,29.78,SSW,202,0.0,0.0,59,0.00,,---,0.00,VWS V14.01,2013-05-12 17:06:00,
2013-05-12 13:11:00,48.5,34.0,29.79,West,270,0.0,0.0,57,0.00,,---,0.00,VWS V14.01,2013-05-12 17:11:00,
2013-05-12 13:16:00,48.7,33.7,29.79,NE,45,0.0,0.0,56,0.00,,---,0.00,VWS V14.01,2013-05-12 17:16:00,
2013-05-12 13:21:00,48.9,33.0,29.78,WSW,248,0.0,0.0,54,0.00,,---,0.00,VWS V14.01,2013-05-12 17:21:00,
2013-05-12 13:26:00,49.2,33.3,29.78,WSW,248,0.0,0.0,54,0.00,,---,0.00,VWS V14.01,2013-05-12 17:26:00,
2013-05-12 13:31:00,49.6,33.2,29.78,NNW,338,0.0,0.0,53,0.00,,---,0.00,VWS V14.01,2013-05-12 17:31:00,
2013-05-12 13:36:00,49.4,32.5,29.78,WSW,248,0.0,0.0,52,0.00,,---,0.00,VWS V14.01,2013-05-12 17:36:00,
2013-05-12 13:41:00,49.2,31.9,29.78,WSW,248,0.0,0.0,51,0.00,,---,0.00,VWS V14.01,2013-05-12 17:41:00,
2013-05-12 13:46:00,49.2,32.3,29.78,West,270,0.0,0.0,52,0.00,,---,0.00,VWS V14.01,2013-05-12 17:46:00,
2013-05-12 13:51:00,49.6,32.7,29.78,North,0,0.0,0.0,52,0.00,,---,0.00,VWS V14.01,2013-05-12 17:51:00,
2013-05-12 13:56:00,49.8,32.4,29.78,ENE,68,0.0,0.0,51,0.00,,---,0.00,VWS V14.01,2013-05-12 17:56:00,
2013-05-12 14:01:00,49.6,31.7,29.78,ENE,68,0.0,0.0,50,0.00,,---,0.00,VWS V14.01,2013-05-12 18:01:00,
2013-05-12 14:06:00,49.1,31.3,29.78,NW,315,0.0,0.0,50,0.00,,---,0.00,VWS V14.01,2013-05-12 18:06:00,
2013-05-12 14:11:00,48.9,31.1,29.78,WNW,292,0.0,0.0,50,0.00,,---,0.00,VWS V14.01,2013-05-12 18:11:00,
2013-05-12 14:16:00,49.2,31.9,29.78,NW,315,2.0,2.0,51,0.00,,---,0.00,VWS V14.01,2013-05-12 18:16:00,
2013-05-12 14:21:00,49.8,31.9,29.78,NW,315,7.3,7.3,50,0.00,,---,0.00,VWS V14.01,2013-05-12 18:21:00,
2013-05-12 14:26:00,49.8,31.4,29.78,NW,315,6.0,6.0,49,0.00,,---,0.00,VWS V14.01,2013-05-12 18:26:00,
2013-05-12 14:31:00,50.1,31.7,29.78,NNE,22,0.0,0.0,49,0.00,,---,0.00,VWS V14.01,2013-05-12 18:31:00,
2013-05-12 14:36:00,49.8,30.9,29.78,North,0,0.0,0.0,48,0.00,,---,0.00,VWS V14.01,2013-05-12 18:36:00,
2013-05-12 14:41:00,49.8,30.9,29.78,NW,315,1.1,1.1,48,0.00,,---,0.00,VWS V14.01,2013-05-12 18:41:00,
2013-05-12 14:46:00,49.6,30.7,29.78,WSW,248,0.0,0.0,48,0.00,,---,0.00,VWS V14.01,2013-05-12 18:46:00,
2013-05-12 14:51:00,49.2,29.9,29.78,West,270,1.7,1.7,47,0.00,,---,0.00,VWS V14.01,2013-05-12 18:51:00,
2013-05-12 14:56:00,49.2,30.4,29.78,NW,315,0.0,0.0,48,0.00,,---,0.00,VWS V14.01,2013-05-12 18:56:00,
2013-05-12 15:01:00,49.1,30.3,29.77,WNW,292,0.0,0.0,48,0.00,,---,0.00,VWS V14.01,2013-05-12 19:01:00,
2013-05-12 15:06:00,48.9,30.1,29.78,NNE,22,0.0,0.0,48,0.00,,---,0.00,VWS V14.01,2013-05-12 19:06:00,
2013-05-12 15:11:00,49.1,30.8,29.78,NW,315,0.0,0.0,49,0.00,,---,0.00,VWS V14.01,2013-05-12 19:11:00,
2013-05-12 15:16:00,49.2,30.9,29.78,SE,135,0.0,0.0,49,0.00,,---,0.00,VWS V14.01,2013-05-12 19:16:00,
2013-05-12 15:21:00,49.6,31.2,29.77,NNW,338,0.0,0.0,49,0.00,,---,0.00,VWS V14.01,2013-05-12 19:21:00,
2013-05-12 15:26:00,49.4,30.0,29.78,NNE,22,0.0,0.0,47,0.00,,---,0.00,VWS V14.01,2013-05-12 19:26:00,
2013-05-12 15:31:00,49.1,29.8,29.78,North,0,0.0,0.0,47,0.00,,---,0.00,VWS V14.01,2013-05-12 19:31:00,
2013-05-12 15:36:00,48.7,29.9,29.78,NNW,338,0.0,0.0,48,0.00,,---,0.00,VWS V14.01,2013-05-12 19:36:00,
2013-05-12 15:41:00,48.9,30.6,29.78,SE,135,0.0,0.0,49,0.00,,---,0.00,VWS V14.01,2013-05-12 19:41:00,
2013-05-12 15:46:00,48.9,30.6,29.78,NW,315,6.4,6.4,49,0.00,,---,0.00,VWS V14.01,2013-05-12 19:46:00,
2013-05-12 15:51:00,48.7,30.9,29.78,West,270,0.0,0.0,50,0.00,,---,0.00,VWS V14.01,2013-05-12 19:51:00,
2013-05-12 15:56:00,48.3,30.5,29.78,NW,315,7.6,7.6,50,0.00,,---,0.00,VWS V14.01,2013-05-12 19:56:00,
2013-05-12 16:01:00,48.3,31.0,29.79,West,270,0.0,0.0,51,0.00,,---,0.00,VWS V14.01,2013-05-12 20:01:00,
2013-05-12 16:06:00,48.3,31.5,29.79,SSW,202,0.0,0.0,52,0.00,,---,0.00,VWS V14.01,2013-05-12 20:06:00,
2013-05-12 16:11:00,48.0,31.2,29.80,North,0,0.0,0.0,52,0.00,,---,0.00,VWS V14.01,2013-05-12 20:11:00,
2013-05-12 16:16:00,47.8,31.5,29.80,SSW,202,0.0,0.0,53,0.00,,---,0.00,VWS V14.01,2013-05-12 20:16:00,
2013-05-12 16:21:00,48.0,32.2,29.79,NW,315,0.0,0.0,54,0.00,,---,0.00,VWS V14.01,2013-05-12 20:21:00,
2013-05-12 16:26:00,47.8,32.0,29.79,ESE,112,0.0,0.0,54,0.00,,---,0.00,VWS V14.01,2013-05-12 20:26:00,
2013-05-12 16:31:00,47.6,31.8,29.79,West,270,0.0,0.0,54,0.00,,---,0.00,VWS V14.01,2013-05-12 20:31:00,
2013-05-12 16:36:00,47.4,32.1,29.79,WNW,292,0.0,0.0,55,0.00,,---,0.00,VWS V14.01,2013-05-12 20:36:00,
2013-05-12 16:41:00,47.3,31.5,29.79,ENE,68,0.0,0.0,54,0.00,,---,0.00,VWS V14.01,2013-05-12 20:41:00,
2013-05-12 16:46:00,47.1,31.3,29.79,NW,315,0.0,0.0,54,0.00,,---,0.00,VWS V14.01,2013-05-12 20:46:00,
2013-05-12 16:51:00,47.3,32.0,29.79,WNW,292,0.0,0.0,55,0.00,,---,0.00,VWS V14.01,2013-05-12 20:51:00,
2013-05-12 16:56:00,47.4,32.1,29.79,NNW,338,0.0,0.0,55,0.00,,---,0.00,VWS V14.01,2013-05-12 20:56:00,
2013-05-12 17:01:00,47.8,32.9,29.79,NE,45,0.0,0.0,56,0.00,,---,0.00,VWS V14.01,2013-05-12 21:01:00,
2013-05-12 17:06:00,48.3,32.0,29.80,NW,315,0.0,0.0,53,0.00,,---,0.00,VWS V14.01,2013-05-12 21:06:00,
2013-05-12 17:11:00,48.2,31.4,29.80,North,0,0.0,0.0,52,0.00,,---,0.00,VWS V14.01,2013-05-12 21:11:00,
2013-05-12 17:16:00,48.0,31.2,29.80,WNW,292,0.0,0.0,52,0.00,,---,0.00,VWS V14.01,2013-05-12 21:16:00,
2013-05-12 17:21:00,47.8,31.0,29.80,WNW,292,0.0,0.0,52,0.00,,---,0.00,VWS V14.01,2013-05-12 21:21:00,
2013-05-12 17:26:00,47.4,30.7,29.80,North,0,0.0,0.0,52,0.00,,---,0.00,VWS V14.01,2013-05-12 21:26:00,
2013-05-12 17:31:00,47.3,30.6,29.80,NE,45,0.0,0.0,52,0.00,,---,0.00,VWS V14.01,2013-05-12 21:31:00,
2013-05-12 17:36:00,47.1,30.4,29.80,NNE,22,0.0,0.0,52,0.00,,---,0.00,VWS V14.01,2013-05-12 21:36:00,
2013-05-12 17:41:00,47.1,30.4,29.80,NW,315,0.0,0.0,52,0.00,,---,0.00,VWS V14.01,2013-05-12 21:41:00,
2013-05-12 17:46:00,46.9,30.2,29.80,NNW,338,4.4,4.4,52,0.00,,---,0.00,VWS V14.01,2013-05-12 21:46:00,
2013-05-12 17:51:00,46.5,29.8,29.80,NNW,338,0.0,0.0,52,0.00,,---,0.00,VWS V14.01,2013-05-12 21:51:00,
2013-05-12 17:56:00,46.5,29.8,29.80,WNW,292,0.0,0.0,52,0.00,,---,0.00,VWS V14.01,2013-05-12 21:56:00,
2013-05-12 18:01:00,46.2,29.6,29.80,North,0,0.0,0.0,52,0.00,,---,0.00,VWS V14.01,2013-05-12 22:01:00,
2013-05-12 18:06:00,46.0,29.4,29.80,NE,45,0.0,0.0,52,0.00,,---,0.00,VWS V14.01,2013-05-12 22:06:00,
2013-05-12 18:11:00,46.0,29.4,29.81,SW,225,0.0,0.0,52,0.00,,---,0.00,VWS V14.01,2013-05-12 22:11:00,
2013-05-12 18:16:00,46.2,29.6,29.80,NW,315,9.1,9.1,52,0.00,,---,0.00,VWS V14.01,2013-05-12 22:16:00,
2013-05-12 18:21:00,46.2,29.6,29.80,WSW,248,0.0,0.0,52,0.00,,---,0.00,VWS V14.01,2013-05-12 22:21:00,
2013-05-12 18:26:00,46.0,28.9,29.80,NW,315,4.9,4.9,51,0.00,,---,0.00,VWS V14.01,2013-05-12 22:26:00,
2013-05-12 18:31:00,45.6,28.5,29.81,NW,315,2.6,2.6,51,0.00,,---,0.00,VWS V14.01,2013-05-12 22:31:00,
2013-05-12 18:36:00,45.5,28.9,29.81,North,0,0.0,0.0,52,0.00,,---,0.00,VWS V14.01,2013-05-12 22:36:00,
2013-05-12 18:41:00,45.3,28.7,29.81,NNE,22,0.0,0.0,52,0.00,,---,0.00,VWS V14.01,2013-05-12 22:41:00,
2013-05-12 18:46:00,45.3,28.7,29.81,NW,315,6.7,6.7,52,0.00,,---,0.00,VWS V14.01,2013-05-12 22:46:00,
2013-05-12 18:51:00,45.3,28.7,29.81,NW,315,8.0,8.0,52,0.00,,---,0.00,VWS V14.01,2013-05-12 22:51:00,
2013-05-12 18:56:00,45.3,28.7,29.81,NW,315,0.0,0.0,52,0.00,,---,0.00,VWS V14.01,2013-05-12 22:56:00,
2013-05-12 19:01:00,45.1,28.5,29.83,NW,315,4.6,4.6,52,0.00,,---,0.00,VWS V14.01,2013-05-12 23:01:00,
2013-05-12 19:06:00,44.6,28.5,29.84,NW,315,0.0,0.0,53,0.00,,---,0.00,VWS V14.01,2013-05-12 23:06:00,
2013-05-12 19:11:00,44.2,29.1,29.85,NNW,338,5.1,5.1,55,0.00,,---,0.00,VWS V14.01,2013-05-12 23:11:00,
2013-05-12 19:16:00,42.9,29.6,29.86,East,90,0.0,0.0,59,0.00,,---,0.00,VWS V14.01,2013-05-12 23:16:00,
2013-05-12 19:21:00,42.0,29.5,29.85,NNW,338,0.0,0.0,61,0.00,,---,0.00,VWS V14.01,2013-05-12 23:21:00,
2013-05-12 19:26:00,41.3,29.3,29.85,NW,315,0.0,0.0,62,0.00,,---,0.00,VWS V14.01,2013-05-12 23:26:00,
2013-05-12 19:31:00,41.0,29.4,29.85,WNW,292,0.0,0.0,63,0.02,,---,0.02,VWS V14.01,2013-05-12 23:31:00,
2013-05-12 19:36:00,40.4,29.6,29.85,WNW,292,0.0,0.0,65,0.02,,---,0.02,VWS V14.01,2013-05-12 23:36:00,
2013-05-12 19:40:00,40.2,29.8,29.86,WNW,292,0.0,0.0,66,0.02,,---,0.02,VWS V14.01,2013-05-12 23:40:00,
2013-05-12 19:45:00,39.9,29.9,29.85,North,0,2.6,2.6,67,0.02,,---,0.02,VWS V14.01,2013-05-12 23:45:00,
2013-05-12 19:50:00,39.5,29.5,29.85,WNW,292,0.0,0.0,67,0.02,,---,0.02,VWS V14.01,2013-05-12 23:50:00,
2013-05-12 19:55:00,39.3,29.3,29.85,NNW,338,0.0,0.0,67,0.02,,---,0.02,VWS V14.01,2013-05-12 23:55:00,
2013-05-12 20:00:00,39.3,29.6,29.85,NNE,22,0.0,0.0,68,0.02,,---,0.02,VWS V14.01,2013-05-13 00:00:00,
2013-05-12 20:05:00,39.0,29.4,29.85,NNW,338,0.0,0.0,68,0.02,,---,0.02,VWS V14.01,2013-05-13 00:05:00,
2013-05-12 20:10:00,38.8,29.5,29.85,NW,315,0.0,0.0,69,0.02,,---,0.02,VWS V14.01,2013-05-13 00:10:00,
2013-05-12 20:15:00,38.6,29.3,29.85,NNW,338,0.0,0.0,69,0.02,,---,0.02,VWS V14.01,2013-05-13 00:15:00,
2013-05-12 20:20:00,38.3,29.0,29.85,NW,315,0.0,0.0,69,0.02,,---,0.02,VWS V14.01,2013-05-13 00:20:00,
2013-05-12 20:25:00,38.1,28.8,29.85,NW,315,0.0,0.0,69,0.02,,---,0.02,VWS V14.01,2013-05-13 00:25:00,
2013-05-12 20:30:00,37.9,29.0,29.85,NNW,338,0.0,0.0,70,0.00,,---,0.02,VWS V14.01,2013-05-13 00:30:00,
2013-05-12 20:35:00,37.9,29.0,29.85,North,0,0.0,0.0,70,0.00,,---,0.02,VWS V14.01,2013-05-13 00:35:00,
2013-05-12 20:40:00,37.7,29.2,29.85,WNW,292,0.0,0.0,71,0.00,,---,0.02,VWS V14.01,2013-05-13 00:40:00,
2013-05-12 20:45:00,37.5,29.0,29.85,North,0,0.0,0.0,71,0.00,,---,0.02,VWS V14.01,2013-05-13 00:45:00,
2013-05-12 20:50:00,37.4,28.9,29.85,NNE,22,0.0,0.0,71,0.00,,---,0.02,VWS V14.01,2013-05-13 00:50:00,
2013-05-12 20:55:00,37.4,29.2,29.85,NW,315,0.0,0.0,72,0.00,,---,0.02,VWS V14.01,2013-05-13 00:55:00,
2013-05-12 21:00:00,37.2,29.0,29.86,NW,315,0.0,0.0,72,0.00,,---,0.02,VWS V14.01,2013-05-13 01:00:00,
2013-05-12 21:05:00,37.2,29.0,29.86,West,270,0.0,0.0,72,0.00,,---,0.02,VWS V14.01,2013-05-13 01:05:00,
2013-05-12 21:10:00,37.2,29.0,29.86,NW,315,0.0,0.0,72,0.00,,---,0.02,VWS V14.01,2013-05-13 01:10:00,
2013-05-12 21:15:00,37.2,29.4,29.85,North,0,0.0,0.0,73,0.00,,---,0.02,VWS V14.01,2013-05-13 01:15:00,
2013-05-12 21:20:00,37.2,29.4,29.85,NNE,22,0.0,0.0,73,0.00,,---,0.02,VWS V14.01,2013-05-13 01:20:00,
2013-05-12 21:25:00,37.2,29.0,29.85,NNW,338,0.0,0.0,72,0.00,,---,0.02,VWS V14.01,2013-05-13 01:25:00,
2013-05-12 21:30:00,37.0,28.8,29.86,NW,315,0.0,0.0,72,0.00,,---,0.02,VWS V14.01,2013-05-13 01:30:00,
2013-05-12 21:35:00,37.0,28.8,29.86,SE,135,0.0,0.0,72,0.00,,---,0.02,VWS V14.01,2013-05-13 01:35:00,
2013-05-12 21:40:00,37.0,28.8,29.85,NNW,338,0.0,0.0,72,0.00,,---,0.02,VWS V14.01,2013-05-13 01:40:00,
2013-05-12 21:45:00,37.0,28.8,29.86,North,0,3.3,3.3,72,0.00,,---,0.02,VWS V14.01,2013-05-13 01:45:00,
2013-05-12 21:50:00,36.8,28.6,29.86,NNW,338,0.0,0.0,72,0.00,,---,0.02,VWS V14.01,2013-05-13 01:50:00,
2013-05-12 21:55:00,36.8,28.6,29.85,NNW,338,0.0,0.0,72,0.00,,---,0.02,VWS V14.01,2013-05-13 01:55:00,
2013-05-12 22:00:00,36.8,28.6,29.85,WNW,292,0.0,0.0,72,0.00,,---,0.02,VWS V14.01,2013-05-13 02:00:00,
2013-05-12 22:05:00,36.6,28.4,29.85,West,270,0.0,0.0,72,0.00,,---,0.02,VWS V14.01,2013-05-13 02:05:00,
2013-05-12 22:10:00,36.6,28.4,29.86,West,270,0.0,0.0,72,0.00,,---,0.02,VWS V14.01,2013-05-13 02:10:00,
2013-05-12 22:15:00,36.6,28.4,29.86,NW,315,5.8,5.8,72,0.00,,---,0.02,VWS V14.01,2013-05-13 02:15:00,
2013-05-12 22:20:00,36.5,28.4,29.85,NW,315,0.0,0.0,72,0.00,,---,0.02,VWS V14.01,2013-05-13 02:20:00,
2013-05-12 22:25:00,36.3,28.5,29.85,SE,135,0.0,0.0,73,0.00,,---,0.02,VWS V14.01,2013-05-13 02:25:00,
2013-05-12 22:30:00,36.3,28.5,29.85,East,90,0.0,0.0,73,0.00,,---,0.02,VWS V14.01,2013-05-13 02:30:00,
2013-05-12 22:35:00,36.1,28.3,29.85,NNW,338,8.2,8.2,73,0.00,,---,0.02,VWS V14.01,2013-05-13 02:35:00,
2013-05-12 22:40:00,36.1,28.3,29.85,NW,315,0.0,0.0,73,0.00,,---,0.02,VWS V14.01,2013-05-13 02:40:00,
2013-05-12 22:45:00,36.1,28.3,29.85,NNW,338,6.0,6.0,73,0.00,,---,0.02,VWS V14.01,2013-05-13 02:45:00,
2013-05-12 22:50:00,36.1,28.3,29.85,WNW,292,0.0,0.0,73,0.00,,---,0.02,VWS V14.01,2013-05-13 02:50:00,
2013-05-12 22:55:00,35.9,27.8,29.86,NNE,22,6.7,6.7,72,0.00,,---,0.02,VWS V14.01,2013-05-13 02:55:00,
2013-05-12 23:00:00,35.7,27.6,29.86,ENE,68,3.3,3.3,72,0.00,,---,0.02,VWS V14.01,2013-05-13 03:00:00,
2013-05-12 23:05:00,35.7,27.6,29.86,NNW,338,0.0,0.0,72,0.00,,---,0.02,VWS V14.01,2013-05-13 03:05:00,
2013-05-12 23:10:00,35.7,27.6,29.86,WNW,292,0.0,0.0,72,0.00,,---,0.02,VWS V14.01,2013-05-13 03:10:00,
2013-05-12 23:15:00,35.7,27.6,29.85,West,270,0.0,0.0,72,0.00,,---,0.02,VWS V14.01,2013-05-13 03:15:00,
2013-05-12 23:20:00,35.4,27.3,29.86,NW,315,4.2,4.2,72,0.00,,---,0.02,VWS V14.01,2013-05-13 03:20:00,
2013-05-12 23:25:00,35.4,27.3,29.86,NNW,338,0.0,0.0,72,0.00,,---,0.02,VWS V14.01,2013-05-13 03:25:00,
2013-05-12 23:30:00,35.4,27.6,29.85,NNW,338,0.0,0.0,73,0.00,,---,0.02,VWS V14.01,2013-05-13 03:30:00,
2013-05-12 23:35:00,35.2,27.4,29.85,NNW,338,0.0,0.0,73,0.00,,---,0.02,VWS V14.01,2013-05-13 03:35:00,
2013-05-12 23:40:00,35.2,27.4,29.85,NE,45,0.0,0.0,73,0.00,,---,0.02,VWS V14.01,2013-05-13 03:40:00,
2013-05-12 23:45:00,35.2,27.4,29.85,North,0,5.8,5.8,73,0.00,,---,0.02,VWS V14.01,2013-05-13 03:45:00,
2013-05-12 23:50:00,35.0,27.2,29.85,NNW,338,0.0,0.0,73,0.00,,---,0.02,VWS V14.01,2013-05-13 03:50:00,
2013-05-12 23:55:00,34.8,27.4,29.86,West,270,0.0,0.0,74,0.00,,---,0.02,VWS V14.01,2013-05-13 03:55:00,